Погода в Бурунах

Россия / Астраханская область     46°11′06″N   47°15′13″E
В апреле 2022 года жителям России запретили посещать сайт meteo.paraplan.net по решению Генеральной прокуратуры. Аудитория сайта уменьшилась в 10 раз. Владельцы сайта не видят смысла в поддержке погодного сервера в таких условиях. Сайт будет закрыт в октябре.
темп.,
°C
ветер,
м/с
пор.,
м/с
влажн.,
%
обл.,
%
осадки,
мм/ч
давл.,
гПа
погр.,
м
29 сентября, чт
чт2901:00+20ю2366100 0.0 100897
04:00+20ююз236879 0.0 100841
07:00+19юз4879100 0.0 1009205
10:00+23зсз4555100 0.1 1010517
13:00+27зсз673395 0.0 10111298
16:00+28зсз463395 0.0 10111789
19:00+25ссз22405 0.0 101215
22:00+24с1142100 0.0 101419
30 сентября, пт
пт3001:00+21ссв22473 0.0 101511
04:00+21св33485 0.0 101618
07:00+19всв22525 0.0 101714
10:00+24всв22400 0.0 1018380
13:00+27вюв21335 0.0 10181435
16:00+28вюв113197 0.0 10181957
19:00+25юв23380 0.0 101957
22:00+22ююз235013 0.0 102044
1 октября, сб
сб101:00+21ююв22542 0.0 102020
04:00+20ююв33615 0.1 102037
07:00+18зюз2275100 0.8 102132
10:00+20ссз3370100 1.9 1022167
13:00+21св5566100 0.6 1022338
16:00+20вюв456789 1.3 1021207
19:00+20в45677 0.1 1021104
22:00+19юв45685 0.1 102097
2 октября, вс
вс201:00+18ююв35713 0.0 102070
04:00+18ююв457220 0.0 101975
07:00+17юв4575100 0.0 101973
10:00+21юв5753100 0.0 1018415
13:00+25юв773168 0.0 10171044
16:00+25юв89345 0.0 10151090
19:00+20юв71262100 0.0 1015523
22:00+18юв81572100 0.0 1014533
3 октября, пн
пн301:00+19юв81755100 0.0 1013605
04:00+19юв91757100 0.0 1012652
07:00+19юв101857100 0.0 1012718
10:00+20юв121848100 0.0 1013925
13:00+21юв131739100 0.0 10131071
16:00+21юв121538100 0.0 10131041
19:00+18вюв8154797 0.0 1014815
22:00+17вюв7155363 0.0 1015639